Location: Tel Aviv
(32.0670°N, 34.7670°E)
Time: 16:32:21
(UTC+02:00)

Envisat - Visible Passes

Search period start: 28 November 2021 00:00
Search period end: 08 December 2021 00:00
Orbit: 764 x 766 km, 98.2° (Epoch: 28 November)

Date Brightness Start Highest point End Pass type
(mag) Time Alt. Az. Time Alt. Az. Time Alt. Az.
28 Nov 2.9 04:40:29 10° NNE 04:45:35 87° WNW 04:50:40 10° SSW visible
29 Nov 4.4 04:04:00 10° NNE 04:08:42 37° E 04:13:22 10° SSE visible
29 Nov 4.2 05:43:47 10° NNW 05:47:24 20° WNW 05:51:00 10° WSW visible
30 Nov 5.8 03:28:42 10° ENE 03:31:38 15° E 03:34:33 10° SE visible
30 Nov 3.2 05:05:58 10° N 05:10:49 47° WNW 05:15:38 10° SW visible
01 Dec 3.2 04:28:58 10° NNE 04:34:03 72° ESE 04:39:05 10° S visible
01 Dec 6.2 17:20:40 10° WSW 17:22:46 12° W 17:24:52 10° WNW visible
02 Dec 4.9 03:52:43 10° NE 03:57:06 29° E 04:01:26 10° SSE visible
02 Dec 3.9 05:31:49 10° NNW 05:35:56 26° WNW 05:40:04 10° SW visible
03 Dec 6.1 03:18:27 10° ENE 03:19:59 11° E 03:21:31 10° ESE visible
03 Dec 2.9 04:54:18 10° N 04:59:18 62° WNW 05:04:18 10° SSW visible
04 Dec 3.7 04:17:30 10° NNE 04:22:29 54° E 04:27:25 10° S visible
04 Dec 6.0 17:07:56 10° SW 17:11:07 17° W 17:14:19 10° NW visible
05 Dec 5.3 03:41:36 10° NE 03:45:30 22° E 03:49:22 10° SE visible
05 Dec 3.6 05:19:57 10° N 05:24:28 33° WNW 05:28:59 10° SW visible
06 Dec 2.8 04:42:41 10° N 04:47:47 81° WNW 04:52:50 10° SSW visible
07 Dec 4.2 04:06:07 10° NNE 04:10:54 41° E 04:15:39 10° SSE visible
07 Dec 4.3 05:46:07 10° NNW 05:49:33 19° WNW 05:52:58 10° WSW visible
07 Dec 5.8 16:55:36 10° SW 16:59:28 22° W 17:03:22 10° NW visible
